1313020832322,1.48609
1313020892322,1.51216
1313020952322,1.50991
1313021012322,1.51447
1313021072322,1.52496
1313021132322,1.52262
1313021192322,1.51676
1313021252322,1.52249
1313021312322,1.52869
1313021372322,1.53367
1313021432322,1.51603
1313021492322,1.50952
1313021552322,1.51608
1313021612322,1.51217
1313021672322,1.50156
1313021732322,1.53646
1313021792322,1.51199
1313021852322,1.52194
1313021912322,1.51292
1313021972322,1.52601
1313022032322,1.50320
1313022092322,1.50867
1313022152322,1.50598
1313022212322,1.51415
1313022272322,1.51804
1313022332322,1.51859
1313022392322,1.51603
1313022452322,1.52884
1313022512322,1.50537
1313022572322,1.50829
1313022632322,1.52683
1313022692322,1.52169
1313022752322,1.51872
1313022812322,1.50999
1313022872322,1.58560
1313022932322,1.52616
1313022992322,1.51515
1313023052322,1.51014
1313023112322,1.51929
1313023172322,1.50535
1313023232322,1.49854
1313023292322,1.51129
1313023352322,1.50464
1313023412322,1.51650
1313023472322,1.51590
1313023532322,1.51102
1313023592322,1.51889
1313023652322,1.50377
1313023712322,1.51019
1313023772322,1.52989
1313023832322,1.52991
1313023892322,1.51833
1313023952322,1.51886
1313024012322,1.51875
1313024072322,1.52709
1313024132322,1.51892
1313024192322,1.52454
1313024252322,1.52305
1313024312322,1.51790
1313024372322,1.52466
1313024432332,1.52102
1313024492332,1.53081
1313024552332,1.52969
1313024612332,1.68918
1313024672332,1.50457
1313024732332,1.50298
1313024792332,1.51191
1313024852332,1.51982
1313024912332,1.52075
1313024972332,1.50099
1313025032332,1.53065
1313025092332,1.53012
1313025152332,1.51865
1313025212332,1.51112
1313025272332,1.50599
1313025332332,1.51496
1313025392332,1.52764
1313025452332,1.50801
1313025512332,1.51909
1313025572332,1.51008
1313025632332,1.51585
1313025692332,1.54651
1313025752332,1.59125
1313025812332,1.53142
1313025872332,1.52166
1313025932332,1.51888
1313025992332,1.50343
1313026052332,1.51513
1313026112332,1.52076
1313026172332,1.51863
1313026232332,1.52212
1313026292332,1.51261
1313026352332,1.51911
1313026412332,1.51906
1313026472332,1.51913
1313026532332,1.52277
1313026592332,1.52065
1313026652332,1.52083
1313026712332,1.53857
1313026772332,1.53065
1313026832332,1.50474
1313026892332,1.52589
1313026952332,1.50887
1313027012332,1.50914
1313027072332,1.52113
1313027132332,1.51422
1313027192332,1.51675
1313027252332,1.52051
1313027312332,1.51739
1313027372332,1.51311
1313027432332,1.51220
1313027492332,1.51478
1313027552332,1.52707
1313027612332,1.51250
1313027672332,1.52309
1313027732332,1.51862
1313027792332,1.52330
1313027852332,1.50383
1313027912332,1.51866
1313027972332,1.50907
1313028032341,1.50484
1313028092341,1.52823
1313028152341,1.50876
1313028212341,1.51465
1313028272341,1.49097
1313028332341,1.50427
1313028392341,1.50521
1313028452341,1.51129
1313028512341,1.50104
1313028572341,1.51179
1313028632341,1.51973
1313028692341,1.55156
1313028752341,1.51831
1313028812341,1.50338
1313028872341,1.51834
1313028932341,1.50673
1313028992341,1.50448
1313029052341,1.50863
1313029112341,1.50031
1313029172341,1.50795
1313029232341,1.49805
1313029292341,1.50647
1313029352341,1.48978
1313029412341,1.50531
1313029472341,1.51296
1313029532341,1.51713
1313029592341,1.51844
1313029652341,1.51247
1313029712341,1.49499
1313029772341,1.49231
1313029832341,1.51060
1313029892341,1.50404
1313029952341,1.50266
1313030012341,1.50494
1313030072341,1.51138
1313030132341,1.52114
1313030192341,1.51721
1313030252341,1.51882
1313030312341,1.51642
1313030372341,1.51211
1313030432341,1.52593
1313030492341,1.53303
1313030552341,1.52173
1313030612341,1.51847
1313030672341,1.50404
1313030732341,1.51227
1313030792341,1.51763
1313030852341,1.51491
1313030912341,1.50077
1313030972341,1.50985
1313031032341,1.51184
1313031092341,1.50668
1313031152341,1.49521
1313031212341,1.50005
1313031272341,1.51239
1313031332341,1.51423
1313031392341,1.50315
1313031452341,1.50413
1313031512341,1.51274
1313031572341,1.50659
1313031632350,1.51583
1313031692350,1.52561
1313031752350,1.52079
1313031812350,1.51924
1313031872350,1.51496
1313031932350,1.51910
1313031992350,1.50876
1313032052350,1.54800
1313032112350,1.51172
1313032172350,1.50810
1313032232350,1.51343
1313032292350,1.51012
1313032352350,1.49665
1313032412350,1.50289
1313032472350,1.52278
1313032532350,1.50967
1313032592350,1.51881
1313032652350,1.50683
1313032712350,1.50924
1313032772350,1.49712
1313032832350,1.50560
1313032892350,1.51933
1313032952350,1.50721
1313033012350,1.50412
1313033072350,1.77418
1313033132350,1.49910
1313033192350,1.50012
1313033252350,1.51270
1313033312350,1.51309
1313033372350,1.50807
1313033432350,1.51532
1313033492350,1.50487
1313033552350,1.51536
1313033612350,1.50536
1313033672350,1.51095
1313033732350,1.49834
1313033792350,1.50937
1313033852350,1.51153
1313033912350,1.50094
1313033972350,1.50224
1313034032350,1.50151
1313034092350,1.49886
1313034152350,1.51722
1313034212350,1.50795
1313034272350,1.51020
1313034332350,1.50910
1313034392350,1.51108
1313034452350,1.51149
1313034512350,1.51981
1313034572350,1.49604
1313034632350,1.50542
1313034692350,1.49910
1313034752350,1.50470
1313034812350,1.50247
1313034872350,1.50306
1313034932350,1.50872
1313034992350,1.48300
1313035052350,1.51505
1313035112350,1.49532
1313035172350,1.49643
1313035232359,1.49768
1313035292359,1.50946
1313035352359,1.49336
1313035412359,1.49173
1313035472359,1.49679
1313035532359,1.51159
1313035592359,1.52065
1313035652359,1.49992
1313035712359,1.49388
1313035772359,1.50824
1313035832359,1.49705
1313035892359,1.50800
1313035952359,1.51781
1313036012359,1.51107
1313036072359,1.49547
1313036132359,1.48613
1313036192359,1.50594
1313036252359,1.49916
1313036312359,1.49928
1313036372359,1.50952
1313036432359,1.50534
1313036492359,1.49758
1313036552359,1.50984
1313036612359,1.51444
1313036672359,1.49097
1313036732359,1.50047
1313036792359,1.50062
1313036852359,1.49852
1313036912359,1.48912
1313036972359,1.49035
1313037032359,1.49142
1313037092359,1.49021
1313037152359,1.49905
1313037212359,1.50307
1313037272359,1.50229
1313037332359,1.50792
1313037392359,1.50105
1313037452359,1.49536
1313037512359,1.50189
1313037572359,1.51229
1313037632359,1.49937
1313037692359,1.49535
1313037752359,1.49706
1313037812359,1.50095
1313037872359,1.49100
1313037932359,1.52449
1313037992359,1.49991
1313038052359,1.50593
1313038112359,1.49922
1313038172359,1.50565
1313038232359,1.51630
1313038292359,1.50902
1313038352359,1.51031
1313038412359,1.51027
1313038472359,1.50885
1313038532359,1.51000
1313038592359,1.50367
1313038652359,1.49904
1313038712359,1.51794
1313038772359,1.51240
1313038832368,1.50947
1313038892368,1.50573
1313038952368,1.50286
1313039012368,1.52642
1313039072368,1.50821
1313039132368,1.50697
1313039192368,1.50763
1313039252368,1.49978
1313039312368,1.50713
1313039372368,1.52059
1313039432368,1.51031
1313039492368,1.51114
1313039552368,1.51463
1313039612368,1.50594
1313039672368,1.52698
1313039732368,1.50085
1313039792368,1.51339
1313039852368,1.51755
1313039912368,1.51877
1313039972368,1.51651
1313040032368,1.51868
1313040092368,1.52007
1313040152368,1.51212
1313040212368,1.51267
1313040272368,1.51190
1313040332368,1.51634
1313040392368,1.49358
1313040452368,1.50971
1313040512368,1.51420
1313040572368,1.52276
1313040632368,1.51500
1313040692368,1.53417
1313040752368,1.54266
1313040812368,1.52854
1313040872368,1.51150
1313040932368,1.51446
1313040992368,1.52094
1313041052368,1.52758
1313041112368,1.51877
1313041172368,1.55636
1313041232368,1.54347
1313041292368,1.50942
1313041352368,1.53369
1313041412368,1.53209
1313041472368,1.51276
1313041532368,1.52246
1313041592368,1.52299
1313041652368,1.53388
1313041712368,1.52806
1313041772368,1.51405
1313041832368,1.53281
1313041892368,1.52037
1313041952368,1.53238
1313042012368,1.53302
1313042072368,1.54531
1313042132368,1.54120
1313042192368,1.53256
1313042252368,1.53709
1313042312368,1.53664
1313042372368,1.53258
1313042432376,1.52647
1313042492376,1.52915
1313042552376,1.53895
1313042612376,1.55231
1313042672376,1.53997
1313042732376,1.53550
1313042792376,1.54548
1313042852376,1.52650
1313042912376,1.52701
1313042972376,1.52130
1313043032376,1.53182
1313043092376,1.53355
1313043152376,1.54120
1313043212376,1.52705
1313043272376,1.52942
1313043332376,1.53185
1313043392376,1.52541
1313043452376,1.54213
1313043512376,1.54491
1313043572376,1.53286
1313043632376,1.53721
1313043692376,1.52938
1313043752376,1.52466
1313043812376,1.53347
1313043872376,1.53673
1313043932376,1.54642
1313043992376,1.52602
1313044052376,1.53646
1313044112376,1.53252
1313044172376,1.54286
1313044232376,1.53049
1313044292376,1.54213
1313044352376,1.54343
1313044412376,1.54031
1313044472376,1.53429
1313044532376,1.54303
1313044592376,1.53324
1313044652376,1.51438
1313044712376,1.54908
1313044772376,1.53250
1313044832376,1.53590
1313044892376,1.53124
1313044952376,1.52416
1313045012376,1.52349
1313045072376,1.53391
1313045132376,1.54104
1313045192376,1.52878
1313045252376,1.53770
1313045312376,1.52453
1313045372376,1.53268
1313045432376,1.52126
1313045492376,1.53295
1313045552376,1.53581
1313045612376,1.52499
1313045672376,1.54101
1313045732376,1.51386
1313045792376,1.53285
1313045852376,1.51973
1313045912376,1.52564
1313045972376,1.53968
1313046032385,1.53159
1313046092385,1.51828
1313046152385,1.53934
1313046212385,1.52056
1313046272385,1.51378
1313046332385,1.52408
1313046392385,1.52572
1313046452385,1.52353
1313046512385,1.53073
1313046572385,1.52016
1313046632385,1.50615
1313046692385,1.28413
1313047232385,1.51273
1313047292385,1.52362
1313047352385,1.52304
1313047412385,1.52100
1313047472385,1.53553
1313047532385,1.51940
1313047592385,1.53823
1313047652385,1.51897
1313047712385,1.51986
1313047772385,1.52305
1313047832385,1.51449
1313047892385,1.52718
1313047952385,1.42300
1313048012385,1.51123
1313048072385,1.51422
1313048132385,1.51844
1313048192385,1.51239
1313048252385,1.52388
1313048312385,1.53092
1313048372385,1.51650
1313048432385,1.50889
1313048492385,1.51583
1313048552385,1.52110
1313048612385,1.53573
1313048672385,1.53470
1313048732385,1.53845
1313048792385,1.53225
1313048852385,1.52582
1313048912385,1.54334
1313048972385,1.52999
1313049032385,1.53304
1313049092385,1.55501
1313049152385,1.52451
1313049212385,1.53104
1313049272385,1.53347
1313049332385,1.52929
1313049392385,1.53174
1313049452385,1.54497
1313049512385,1.52431
1313049572385,1.54375
1313049632394,1.52760
1313049692394,1.53454
1313049752394,1.53868
1313049812394,1.52623
1313049872394,1.52925
1313049932394,1.54465
1313049992394,1.51677
1313050052394,1.52867
1313050112394,1.53058
1313050172394,1.54275
1313050232394,1.53792
1313050292394,1.54944
1313050352394,1.54055
1313050412394,1.54446
1313050472394,1.54981
1313050532394,1.54617
1313050592394,1.55485
1313050652394,1.55205
1313050712394,1.55457
1313050772394,1.54831
1313050832394,1.54511
1313050892394,1.54910
1313050952394,1.53942
1313051012394,1.56037
1313051072394,1.56799
1313051132394,1.55683
1313051192394,1.55529
1313051252394,1.54525
1313051312394,1.55270
1313051372394,1.55453
1313051432394,1.54351
1313051492394,1.54022
1313051552394,1.54981
1313051612394,1.53482
1313051672394,1.54475
1313051732394,1.54242
1313051792394,1.56100
1313051852394,1.54381
1313051912394,1.55621
1313051972394,1.55144
1313052032394,1.54865
1313052092394,1.56438
1313052152394,1.55674
1313052212394,1.54408
1313052272394,1.56346
1313052332394,1.55507
1313052392394,1.52807
1313052452394,1.54522
1313052512394,1.55316
1313052572394,1.54431
1313052632394,1.54580
1313052692394,1.54861
1313052752394,1.54592
1313052812394,1.56235
1313052872394,1.55032
1313052932394,1.54159
1313052992394,1.54467
1313053052394,1.54193
1313053112394,1.53882
1313053172394,1.54138
1313053232403,1.55638
1313053292403,1.54710
1313053352403,1.55182
1313053412403,1.55239
1313053472403,1.56029
1313053532403,1.56105
1313053592403,1.54927
1313053652403,1.56264
1313053712403,1.53693
1313053772403,1.53622
1313053832403,1.53656
1313053892403,1.54609
1313053952403,1.53635
1313054012403,1.55881
1313054072403,1.53203
1313054132403,1.55300
1313054192403,1.55576
1313054252403,1.52591
1313054312403,1.56647
1313054372403,1.53961
1313054432403,1.52844
1313054492403,1.53281
1313054552403,1.54948
1313054612403,1.54541
1313054672403,1.57548
1313054732403,1.56475
1313054792403,1.54780
1313054852403,1.55450
1313054912403,1.55802
1313054972403,1.54036
1313055032403,1.54570
1313055092403,1.55165
1313055152403,1.53628
1313055212403,1.55916
1313055272403,1.54666
1313055332403,1.55794
1313055392403,1.55216
1313055452403,1.55953
1313055512403,1.55541
1313055572403,1.58001
1313055632403,1.56793
1313055692403,1.56269
1313055752403,1.57468
1313055812403,1.55311
1313055872403,1.56708
1313055932403,1.55283
1313055992403,1.55966
1313056052403,1.53635
1313056112403,1.55835
1313056172403,1.55335
1313056232403,1.58043
1313056292403,1.55888
1313056352403,1.55131
1313056412403,1.56520
1313056472403,1.55625
1313056532403,1.58404
1313056592403,1.56218
1313056652403,1.56555
1313056712403,1.56189
1313056772403,1.59963
1313056832412,1.60189
1313056892412,1.59222
1313056952412,1.58582
1313057012412,1.58117
1313057072412,1.58102
1313057132412,1.58573
1313057192412,1.58796
1313057252412,1.58334
1313057312412,1.57811
1313057372412,1.58451
1313057432412,1.57222
1313057492412,1.59495
1313057552412,1.57852
1313057612412,1.62305
1313057672412,1.59637
1313057732412,1.60972
1313057792412,1.58341
1313057852412,1.59346
1313057912412,1.61383
1313057972412,1.60801
1313058032412,1.62656
1313058092412,1.61391
1313058152412,1.62352
1313058212412,1.63832
1313058272412,1.61611
1313058332412,1.63385
1313058392412,1.64041
1313058452412,1.62841
1313058512412,1.64757
1313058572412,1.65430
1313058632412,1.65381
1313058692412,1.62357
1313058752412,1.63328
1313058812412,1.60212
1313058872412,1.63763
1313058932412,1.64717
1313058992412,1.64506
1313059052412,1.65031
1313059112412,1.62500
1313059172412,1.63590
1313059232412,1.62191
1313059292412,1.64090
1313059352412,1.66385
1313059412412,1.63129
1313059472412,1.63883
1313059532412,1.62485
1313059592412,1.63584
1313059652412,1.62468
1313059712412,1.64991
1313059772412,1.62185
1313059832412,1.62700
1313059892412,1.64199
1313059952412,1.61937
1313060012412,1.60521
1313060072412,1.60783
1313060132412,1.60429
1313060192412,1.58563
1313060252412,1.59576
1313060312412,1.62740
1313060372412,1.58258
1313060432421,1.60421
1313060492421,1.57059
1313060552421,1.59401
1313060612421,1.60454
1313060672421,1.60989
1313060732421,1.58441
1313060792421,1.59008
1313060852421,1.57907
1313060912421,1.59313
1313060972421,1.59850
1313061032421,1.59986
1313061092421,1.58445
1313061152421,1.57062
1313061212421,1.57713
1313061272421,1.59316
1313061332421,1.55800
1313061392421,1.58787
1313061452421,1.57969
1313061512421,1.56324
1313061572421,1.56098
1313061632421,1.58237
1313061692421,1.57257
1313061752421,1.57009
1313061812421,1.59076
1313061872421,1.57228
1313061932421,1.56802
1313061992421,1.57365
1313062052421,1.56769
1313062112421,1.58207
1313062172421,1.55599
1313062232421,1.55771
1313062292421,1.58397
1313062352421,1.57296
1313062412421,1.55690
1313062472421,1.54124
1313062532421,1.57274
1313062592421,1.59961
1313062652421,1.57789
1313062712421,1.54870
1313062772421,1.56793
1313062832421,1.56411
1313062892421,1.55062
1313062952421,1.61327
1313063012421,1.56404
1313063072421,1.57386
1313063132421,1.55737
1313063192421,1.58700
1313063252421,1.55729
1313063312421,1.56906
1313063372421,1.57274
1313063432421,1.56474
1313063492421,1.55471
1313063552421,1.59333
1313063612421,1.54843
1313063672421,1.56236
1313063732421,1.55551
1313063792421,1.54521
1313063852421,1.55896
1313063912421,1.56631
1313063972421,1.55455
1313064032430,1.55819
1313064092430,1.57683
1313064152430,1.53773
1313064212430,1.55200
1313064272430,1.54821
1313064332430,1.57160
1313064392430,1.55888
1313064452430,1.57457
1313064512430,1.56192
1313064572430,1.54765
1313064632430,1.54929
1313064692430,1.54406
1313064752430,1.54927
1313064812430,1.52946
1313064872430,1.56068
1313064932430,1.55919
1313064992430,1.56584
1313065052430,1.53254
1313065112430,1.54764
1313065172430,1.57122
1313065232430,1.56275
1313065292430,1.56822
1313065352430,1.54802
1313065412430,1.55069
1313065472430,1.55125
1313065532430,1.55624
1313065592430,1.55286
1313065652430,1.53793
1313065712430,1.55143
1313065772430,1.56129
1313065832430,1.53924
1313065892430,1.53327
1313065952430,1.53514
1313066012430,1.54305
1313066072430,1.54355
1313066132430,1.55478
1313066192430,1.55318
1313066252430,1.55772
1313066312430,1.53537
1313066372430,1.54543
1313066432430,1.55473
1313066492430,1.53393
1313066552430,1.59391
1313066612430,1.54158
1313066672430,1.53267
1313066732430,1.53694
1313066792430,1.53695
1313066852430,1.53735
1313066912430,1.53721
1313066972430,1.55511
1313067032430,1.54118
1313067092430,1.55043
1313067152430,1.54505
1313067212430,1.53970
1313067272430,1.56097
1313067332430,1.54057
1313067392430,1.54076
1313067452430,1.54717
1313067512430,1.54011
1313067572430,1.56246
1313067632439,1.56992
1313067692439,1.53669
1313067752439,1.54244
1313067812439,1.54463
1313067872439,1.54503
1313067932439,1.55566
1313067992439,1.54770
1313068052439,1.54101
1313068112439,1.52939
1313068172439,1.54636
1313068232439,1.53063
1313068292439,1.55448
1313068352439,1.51534
1313068412439,1.53520
1313068472439,1.55131
1313068532439,1.54040
1313068592439,1.54187
1313068652439,1.54052
1313068712439,1.51967
1313068772439,1.54849
1313068832439,1.54898
1313068892439,1.54137
1313068952439,1.53423
1313069012439,1.55508
1313069072439,1.51907
1313069132439,1.54848
1313069192439,1.54234
1313069252439,1.52705
1313069312439,1.54573
1313069372439,1.53182
1313069432439,1.54990
1313069492439,1.54319
1313069552439,1.54198
1313069612439,1.54145
1313069672439,1.65163
1313069732439,1.54173
1313069792439,1.54186
1313069852439,1.52592
1313069912439,1.53259
1313069972439,1.68041
1313070032439,1.54473
1313070092439,1.54094
1313070152439,1.53925
1313070212439,1.52288
1313070272439,1.52643
1313070332439,1.52430
1313070392439,1.55379
1313070452439,1.54304
1313070512439,1.50333
1313070572439,1.54761
1313070632439,1.53070
1313070692439,1.51812
1313070752439,1.54058
1313070812439,1.53064
1313070872439,1.53536
1313070932439,1.54835
1313070992439,1.54137
1313071052439,1.53236
1313071112439,1.51813
1313071172439,1.53103
1313071232448,1.53700
1313071292448,1.53702
1313071352448,1.52329
1313071412448,1.52041
1313071472448,1.54087
1313071532448,1.50992
1313071592448,1.51918
1313071652448,1.53317
1313071712448,1.54081
1313071772448,1.53464
1313071832448,1.53803
1313071892448,1.52400
1313071952448,1.52404
1313072012448,1.52473
1313072072448,1.53497
1313072132448,1.52062
1313072192448,1.52706
1313072252448,1.52703
1313072312448,1.51767
1313072372448,1.52037
1313072432448,1.54509
1313072492448,1.53226
1313072552448,1.53999
1313072612448,1.51373
1313072672448,1.52436
1313072732448,1.52769
1313072792448,1.52013
1313072852448,1.52841
1313072912448,1.53806
1313072972448,1.54219
1313073032448,1.52888
1313073092448,1.52014
1313073152448,1.52401
1313073212448,1.52505
1313073272448,1.50551
1313073332448,1.52085
1313073392448,1.53198
1313073452448,1.53753
1313073512448,1.50883
1313073572448,1.51935
1313073632448,1.52563
1313073692448,1.54348
1313073752448,1.53916
1313073812448,1.53071
1313073872448,1.52259
1313073932448,1.51298
1313073992448,1.52676
1313074052448,1.53014
1313074112448,1.51682
1313074172448,1.52632
1313074232448,1.54359
1313074292448,1.50747
1313074352448,1.54191
1313074412448,1.53668
1313074472448,1.52142
1313074532448,1.54246
1313074592448,1.53239
1313074652448,1.52422
1313074712448,1.53958
1313074772448,1.53451
1313074832458,1.52024
1313074892458,1.51530
1313074952458,1.55007
1313075012458,1.53798
1313075072458,1.54679
1313075132458,1.54520
1313075192458,1.52448
1313075252458,1.54900
1313075312458,1.51293
1313075372458,1.51774
1313075432458,1.53323
1313075492458,1.53059
1313075552458,1.54527
1313075612458,1.53043
1313075672458,1.52959
1313075732458,1.55369
1313075792458,1.53406
1313075852458,1.53748
1313075912458,1.53680
1313075972458,1.51917
1313076032458,1.53384
1313076092458,1.52073
1313076152458,1.51706
1313076212458,1.52615
1313076272458,1.50904
1313076332458,1.52150
1313076392458,1.51822
1313076452458,1.51714
1313076512458,1.53239
1313076572458,1.51716
1313076632458,1.52177
1313076692458,1.52277
1313076752458,1.51308
1313076812458,1.53581
1313076872458,1.51191
1313076932458,1.53006
1313076992458,1.52190
1313077052458,1.53241
1313077112458,1.51194
1313077172458,1.52006
1313077232458,1.53819
1313077292458,1.54253
1313077352458,1.51979
1313077412458,1.52930
1313077472458,1.52494
1313077532458,1.53660
1313077592458,1.51626
1313077652458,1.52240
1313077712458,1.51140
1313077772458,1.50441
1313077832458,1.52993
1313077892458,1.51440
1313077952458,1.52311
1313078012458,1.50967
1313078072458,1.51016
1313078132458,1.51573
1313078192458,1.51616
1313078252458,1.52022
1313078312458,1.50815
1313078372458,1.53657
1313078432468,1.53288
1313078492468,1.53098
1313078552468,1.50103
1313078612468,1.53935
1313078672468,1.52732
1313078732468,1.51844
1313078792468,1.51094
1313078852468,1.52416
1313078912468,1.51610
1313078972468,1.50196
1313079032468,1.51263
1313079092468,1.52545
1313079152468,1.51704
1313079212468,1.51220
1313079272468,1.51292
1313079332468,1.49995
1313079392468,1.50936
1313079452468,1.49022
1313079512468,1.50822
1313079572468,1.49920
1313079632468,1.50576
1313079692468,1.50656
1313079752468,1.51313
1313079812468,1.50011
1313079872468,1.52293
1313079932468,1.48928
1313079992468,1.47216
1313080052468,1.50448
1313080112468,1.52532
1313080172468,1.48722
1313080232468,1.49414
1313080292468,1.51906
1313080352468,1.52643
1313080412468,1.49055
1313080472468,1.52274
1313080532468,1.50722
1313080592468,1.52384
1313080652468,1.50930
1313080712468,1.52482
1313080772468,1.52701
1313080832468,1.51507
1313080892468,1.50870
1313080952468,1.51241
1313081012468,1.51612
1313081072468,1.53410
1313081132468,1.50813
1313081192468,1.51362
1313081252468,1.52229
1313081312468,1.52590
1313081372468,1.52640
1313081432468,1.51275
1313081492468,1.53038
1313081552468,1.50523
1313081612468,1.51609
1313081672468,1.50480
1313081732468,1.52007
1313081792468,1.50561
1313081852468,1.52160
1313081912468,1.52167
1313081972468,1.52543
1313082032478,1.50083
1313082092478,1.52286
1313082152478,1.50467
1313082212478,1.52582
1313082272478,1.51854
1313082332478,1.51261
1313082392478,1.50841
1313082452478,1.52305
1313082512478,1.52907
1313082572478,1.52018
1313082632478,1.51203
1313082692478,1.50811
1313082752478,1.54928
1313082812478,1.50303
1313082872478,1.50985
1313082932478,1.52063
1313082992478,1.49902
1313083052478,1.52188
1313083112478,1.52128
1313083172478,1.51508
1313083232478,1.53226
1313083292478,1.50741
1313083352478,1.51496
1313083412478,1.52467
1313083472478,1.49943
1313083532478,1.51341
1313083592478,1.51222
1313083652478,1.52108
1313083712478,1.53262
1313083772478,1.52660
1313083832478,1.54011
1313083892478,1.51003
1313083952478,1.51728
1313084012478,1.51631
1313084072478,1.51188
1313084132478,1.50648
1313084192478,1.51638
1313084252478,1.52318
1313084312478,1.52802
1313084372478,1.51846
1313084432478,1.53567
1313084492478,1.52764
1313084552478,1.52222
1313084612478,1.54890
1313084672478,1.52015
1313084732478,1.51812
1313084792478,1.52398
1313084852478,1.51993
1313084912478,1.53019
1313084972478,1.54585
1313085032478,1.53211
1313085092478,1.50514
1313085152478,1.52540
1313085212478,1.53008
1313085272478,1.51943
1313085332478,1.51689
1313085392478,1.50780
1313085452478,1.52004
1313085512478,1.52827
1313085572478,1.52115
1313085632489,1.51869
1313085692489,1.52761
1313085752489,1.51030
1313085812489,1.53797
1313085872489,1.53183
1313085932489,1.52159
1313085992489,1.53859
1313086052489,1.52165
1313086112489,1.54838
1313086172489,1.50700
1313086232489,1.52722
1313086292489,1.54091
1313086352489,1.51918
1313086412489,1.52937
1313086472489,1.52614
1313086532489,1.52103
1313086592489,1.51844
1313086652489,1.51784